Regional Weather Roundup
Issued by NWS

Home | Current Version | Previous Version | Graphics & Text | Print | Product List | Glossary Off
Versions: 1 2 3 4 5 6 7 8 9 10 11 12 13 14 15 16 17 18 19 20 21 22 23 24 25 26 27 28 29 30 31 32 33 34 35 36 37 38 39 40 41 42 43 44 45 46 47 48 49 50

000
ASUS43 KMPX 232210
RWRMN
WEATHER ROUNDUP FOR MINNESOTA
NATIONAL WEATHER SERVICE TWIN CITIES/CHANHASSEN MN
500 PM CDT WED MAY 23 2018


NOTE: "FAIR" INDICATES FEW OR NO CLOUDS BELOW 12,000 FEET WITH NO
SIGNIFICANT WEATHER AND/OR OBSTRUCTIONS TO VISIBILITY. N/A MEANS
CURRENT SKY AND/OR WEATHER CONDITIONS ARE NOT AVAILABLE.

MNZ060>063-068>070-232300-
   Twin Cities Metro

CITY           SKY/WX    TMP DP  RH WIND       PRES   REMARKS
TWIN CITIES    PTSUNNY   83  59  44 S9        30.06F
ST PAUL        FAIR      81  60  48 E5        30.06F
CRYSTAL        PTSUNNY   82  57  42 VRB5      30.05F
BLAINE         PTSUNNY   82  61  47 SE7       30.07S
LAKEVILLE      FAIR      82  61  47 SE5       30.06S
EDEN PRAIRIE   CLOUDY    80  61  52 E6        30.05F
SOUTH ST PAUL  FAIR      83  59  43 S7        30.05F
LAKE ELMO      FAIR      79  61  53 SE5       30.08F
$$
MNZ001>005-007-008-013>017-022>024-027-028-232300-
   Northwest Minnesota

CITY           SKY/WX    TMP DP  RH WIND       PRES   REMARKS
BEMIDJI        FAIR      80  57  46 S12       30.02F
HALLOCK        FAIR      86  52  30 SE13      29.93F
ROSEAU         FAIR      84  54  34 SE10      29.99F
WARROAD        FAIR      79  63  57 NE9       30.01F
THIEF RVR FALL FAIR      81  59  47 S17       30.00S
CROOKSTON      FAIR      82  59  44 S17       29.96F
FOSSTON        FAIR      79  55  44 SE10      30.01S
DETROIT LAKES  FAIR      79  57  47 SE14      30.02S
MOORHEAD       FAIR      77  57  50 S15G21    29.99R
PARK RAPIDS    FAIR      79  61  53 S10       30.02F
MAHNOMEN       FAIR      78  59  52 S9        29.99S
$$
MNZ006-009>011-018-025>026-232300-
   North Central Minnesota

CITY           SKY/WX    TMP DP  RH WIND       PRES   REMARKS
BAUDETTE       FAIR      82  55  39 S7        30.01F
FLAG ISLAND    FAIR      81  52  36 SE5       30.01F
INTL FALLS     FAIR      82  52  35 SW7       30.02F
WASKISH          N/A     81  57  44 NW5       30.02F
BIG FORK       FAIR      82  55  39 S7        30.05S
LONGVILLE      FAIR      81  61  50 S9        30.05S
GRAND RAPIDS   FAIR      82  59  45 S10       30.07F
CRANE LAKE     FAIR      82  48  30 S6        30.05F
ORR            FAIR      84  46  26 S8        30.02F
COOK           FAIR      82  52  34 SW10      30.06F
WALKER         CLOUDY    78  60  53 SE7       30.03F
$$
MNZ012-019>021-037-232300-
   Northeast Minnesota

CITY           SKY/WX    TMP DP  RH WIND       PRES   REMARKS
DULUTH         FAIR      80  57  45 E12       30.08F
ELY            FAIR      81  46  30 SW8       30.06F
HIBBING        FAIR      80  55  42 VRB3      30.06F
EVELETH        FAIR      80  54  40 SW7       30.08F
DULUTH HARBOR  FAIR      48  45  87 N7        30.10S
TWO HARBORS    FAIR      82  61  47 SE6       30.07F
SILVER BAY     FAIR      79  55  44 SE5       30.08S
GRAND MARAIS     N/A     51  40  65 E5        30.10F
G MARAIS ARPRT FAIR      75  39  27 S7        30.13F
$$
MNZ029>031-032-039>041-046>048-054>057-064-232300-
   West Central Minnesota

CITY           SKY/WX    TMP DP  RH WIND       PRES   REMARKS
FERGUS FALLS   FAIR      75  61  60 S10       29.96F
WHEATON        CLOUDY    73  61  64 SE15      30.00R
MORRIS         PTSUNNY   77  63  61 SE16      30.00S
ALEXANDRIA     FAIR      71  63  75 SE10      30.04S
ELBOW LAKE     FAIR      72  63  72 E9        30.01S
WADENA         FAIR      73  61  64 E10       30.01F
GLENWOOD       FAIR      73  63  68 SE15      30.04F
APPLETON       CLOUDY    77  61  57 SE16      29.99F
BENSON         CLOUDY    75  61  60 SE8G16    30.03S
ORTONVILLE     CLOUDY    75  63  64 E13       29.99S
MADISON        MOSUNNY   81  66  61 SE18G24   29.98F
WILLMAR        FAIR      73  63  68 E14       30.07S
$$
MNZ033>034-036-042>043-049>051-058-059-232300-
   Central Minnesota

CITY           SKY/WX    TMP DP  RH WIND       PRES   REMARKS
ST CLOUD       FAIR      72  59  63 S6        30.07F
SAUK CENTRE    FAIR      70  64  79 SE9       30.05F
PAYNESVILLE    FAIR      72  62  72 E8        30.07F
PINE RIVER     FAIR      75  61  60 S9        30.07F
BRAINERD       FAIR      78  60  53 S9        30.05F
STAPLES        FAIR      75  59  57 SE6       30.03F
LONG PRAIRIE   PTSUNNY   68  63  83 E9        30.04F
LITTLE FALLS   FAIR      72  61  68 E7        30.04F
LITCHFIELD     FAIR      73  68  83 E7        30.07F
BUFFALO        FAIR      73  60  63 N6        30.08F
MAPLE LAKE     FAIR      72  67  84 CALM      30.08F
HUTCHINSON     FAIR      76  67  73 N10       30.07S
$$
MNZ037-044-045-052-053-232300-
   East Central Minnesota

CITY           SKY/WX    TMP DP  RH WIND       PRES   REMARKS
PRINCETON      FAIR      77  61  57 CALM      30.07F
MORA           FAIR      75  57  53 SW7       30.10S
CAMBRIDGE      FAIR      81  61  50 CALM      30.08F
RUSH CITY      FAIR      78  58  51 S7        30.09R
MOOSE LAKE     FAIR      79  59  50 SE6       30.05F
HINCKLEY       FAIR      77  63  61 SW8       30.09R
CLOQUET        FAIR      81  54  39 S8        30.07F
MCGREGOR       FAIR      79  61  53 S9        30.07S
$$
MNZ071>073-080-081-089-090-097-098-232300-
   Southwest Minnesota

CITY           SKY/WX    TMP DP  RH WIND       PRES   REMARKS
MONTEVIDEO     PTSUNNY   79  64  61 SE20      30.00F
GRANITE FALLS  PTSUNNY   81  68  65 E13G21    30.02F
CANBY          CLOUDY    80  67  65 SE21      29.99S
MARSHALL       CLOUDY    77  69  76 SE18      29.99F
REDWOOD FALLS  MOSUNNY   79  68  69 SE18      30.01F
OLIVIA         PTSUNNY   73  64  73 NE10G16   30.04S
PIPESTONE      CLOUDY    84  61  45 SW17      29.99S
WINDOM         CLOUDY    81  59  47 SE10G18   30.01F
WORTHINGTON    CLOUDY    86  63  45 S18G24    30.00F
JACKSON        CLOUDY    81  66  61 SE15G21   30.03F
TRACY          CLOUDY    79  72  77 SE16      29.99F
SLAYTON        MOSUNNY   85  63  47 S20       30.00F
$$
MNZ065>067-074>077-082>085-091>093-232300-
   South Central Minnesota

CITY           SKY/WX    TMP DP  RH WIND       PRES   REMARKS
MANKATO        FAIR      83  67  58 SE10      30.05F
NEW ULM        MOSUNNY   81  66  61 SE10      30.03S
ST JAMES       PTSUNNY   82  68  61 S13       30.04S
FAIRMONT       MOSUNNY   83  69  62 SE14      30.03F
GLENCOE        FAIR      82  62  50 SE6       30.05S
FARIBAULT      FAIR      84  61  45 CALM      30.07S
OWATONNA       FAIR      81  64  57 SE9       30.07F
WASECA         FAIR      79  63  57 SE9       30.08S
ALBERT LEA     PTSUNNY   77  66  69 E8        30.07F
$$
MNZ078>079-086>088-094>096-232300-
   Southeast Minnesota

CITY           SKY/WX    TMP DP  RH WIND       PRES   REMARKS
ROCHESTER      FAIR      79  63  57 S15       30.10F
RED WING       FAIR      82  57  42 SE10      30.06F
STANTON        FAIR      83  61  46 S9        30.06S
DODGE CENTER   PTSUNNY   79  63  57 SE9       30.09F
WINONA         FAIR      79  61  53 S6        30.07S
AUSTIN         PTSUNNY   75  66  73 E9        30.08F
PRESTON        FAIR      75  63  64 S10       30.12F
$$
ABBREVIATIONS USED IN REMARKS
   TC - TEMPERATURES IN CELSIUS
  WCI - WIND CHILL INDEX
   HX - HEAT INDEX
  VSB - VISIBILITY
$$




USA.gov is the U.S. government's official web portal to all federal, state and local government web resources and services.